Theta_e
275 274 274 274 273 273 273 274 274 274 275 275 276 276 277 279 280 281 284 285 287 287 290 291 291 290 290 290 291 291 292 292 294 295 297 299 301 307 309 309 308 307 307 307 307 307 306 305 303 303 303 302 303 303 303 303 304 304 304 303 301 298 299 299 298 293 291 292 292 291 291 292 291 292 292 291 291 293 294 294 294 296 296 298 301
275 274 274 274 273 273 273 273 273 274 274 274 275 275 276 278 279 280 280 282 283 284 284 288 291 290 290 290 291 291 291 292 293 294 295 297 299 304 309 308 308 308 307 306 306 307 306 304 302 302 302 303 301 301 302 302 303 303 303 302 301 299 299 297 295 294 291 288 289 291 292 294 291 293 293 291 291 291 292 293 293 293 295 295 297
275 274 273 273 272 272 272 272 272 273 273 274 274 275 276 277 278 278 279 280 281 282 283 285 288 290 290 290 290 290 291 291 292 293 294 295 298 301 307 309 308 307 306 306 306 306 305 303 302 301 302 301 300 300 300 302 303 303 302 302 301 299 298 298 294 293 290 288 289 289 290 291 292 292 293 293 293 294 293 292 292 292 291 292 295
274 274 273 272 272 272 272 272 272 272 272 273 274 275 276 276 277 278 279 280 280 281 283 284 286 289 289 289 289 289 290 290 291 292 293 295 297 300 305 308 309 308 307 307 306 306 304 303 301 301 300 300 299 299 299 301 302 302 302 301 301 299 298 296 296 293 291 288 288 289 289 290 289 292 292 293 294 294 295 291 290 291 290 291 292
273 273 272 271 271 271 271 271 271 271 272 272 273 274 275 276 277 277 278 278 279 280 281 283 285 287 289 289 289 289 289 290 290 291 292 294 296 299 303 307 308 307 307 307 304 306 305 303 302 300 300 299 298 298 299 299 300 301 301 301 301 300 298 296 294 294 292 289 288 287 289 288 290 292 292 292 291 290 290 291 292 291 289 288 290
273 272 272 271 271 271 271 271 271 271 271 272 273 273 274 275 276 277 278 278 278 278 279 280 282 284 288 289 289 288 289 289 289 290 291 293 295 297 300 306 308 308 307 306 306 306 305 304 302 301 300 299 298 299 299 298 299 299 300 300 300 299 297 295 293 292 292 290 288 287 287 288 289 290 292 293 292 289 289 288 288 288 289 289 290
272 272 271 271 271 271 271 271 271 271 271 271 272 273 273 274 274 275 276 277 277 277 277 278 280 283 286 288 288 288 288 289 289 289 290 291 293 295 298 303 307 308 307 307 306 306 306 305 303 302 301 301 299 299 299 298 298 298 299 299 299 298 295 293 292 291 290 289 288 288 287 288 290 289 291 292 293 293 290 289 288 285 287 290 290
271 271 271 271 270 270 270 271 271 271 271 271 272 272 272 273 273 275 276 276 276 276 277 277 278 281 284 287 288 288 288 288 288 289 289 290 292 294 297 301 305 307 306 307 306 306 306 306 304 303 303 302 301 300 300 298 298 297 298 298 297 295 293 291 290 290 289 288 288 287 287 287 286 288 289 289 289 289 290 291 289 287 288 288 289
271 271 270 270 270 270 271 271 271 271 271 271 271 271 271 272 273 274 275 276 276 276 277 277 277 278 281 285 287 287 288 288 288 288 289 290 292 294 296 299 304 305 306 306 306 306 306 306 305 305 302 299 297 298 299 298 298 295 296 296 294 294 292 291 291 290 289 288 287 287 287 287 287 287 287 288 289 289 290 290 289 289 288 288 286
271 270 269 270 270 270 270 270 270 270 270 270 270 271 271 272 273 273 274 275 275 276 276 277 277 278 279 280 283 285 287 288 288 289 290 289 290 292 294 297 302 305 304 304 304 305 305 306 305 299 297 296 295 296 297 297 297 298 296 295 293 293 292 291 290 290 289 288 287 286 286 286 286 287 288 289 290 290 289 288 287 286 287 287 286
269 269 269 269 269 269 269 269 269 269 269 269 270 271 271 271 272 272 273 274 275 276 277 276 277 278 279 279 281 282 285 287 289 290 291 291 291 291 292 294 299 304 304 303 303 303 304 305 306 299 297 296 296 296 297 297 296 296 295 295 294 293 292 291 290 290 289 288 287 287 287 286 287 288 289 289 290 289 288 288 287 287 286 286 286
268 268 268 268 269 268 268 268 268 268 268 269 269 270 271 271 271 271 272 273 275 276 277 276 277 277 278 279 280 282 284 287 289 290 291 291 291 290 292 293 296 303 304 304 304 303 304 305 305 304 302 300 300 298 297 296 296 295 295 294 294 295 295 293 291 289 289 288 287 287 287 287 287 288 289 289 288 288 288 288 287 287 287 287 287
268 268 268 268 268 268 268 268 267 267 268 268 269 269 270 270 270 271 271 273 274 275 275 276 277 277 278 278 279 281 283 287 289 290 291 291 292 291 291 293 295 299 303 304 304 303 303 303 303 304 303 296 297 300 299 297 295 295 294 294 294 295 295 295 294 292 291 290 288 288 288 288 287 288 289 289 289 288 287 287 287 288 288 288 288
267 267 267 267 267 267 267 267 267 267 267 267 268 268 269 269 269 270 270 270 271 274 276 276 277 277 277 278 279 281 283 286 288 290 290 291 291 291 291 292 294 298 302 303 304 303 303 302 302 302 302 298 299 300 299 298 295 294 294 294 293 293 294 294 293 293 292 291 290 289 290 290 289 289 290 290 289 288 287 287 288 288 288 288 289
267 267 266 267 267 266 266 266 265 266 266 267 267 267 267 267 268 269 269 269 270 273 276 276 277 277 278 278 279 280 282 286 288 289 290 291 291 291 291 292 294 297 302 303 303 303 303 304 302 302 301 299 299 299 299 297 294 293 292 292 292 293 293 293 293 293 292 292 291 291 291 291 291 291 290 290 289 290 289 288 288 288 287 286 286
266 266 266 266 266 266 265 265 265 265 265 265 266 266 266 266 267 268 268 269 270 272 275 277 277 277 278 279 280 280 282 285 287 289 290 291 291 290 290 291 293 296 300 301 303 303 303 303 302 301 300 299 297 297 297 296 293 292 292 291 291 292 293 293 293 293 293 293 293 292 292 292 292 290 290 289 288 287 287 287 287 287 286 285 283
265 265 265 265 265 265 264 264 264 264 264 264 265 265 265 266 267 268 268 269 269 271 274 277 277 277 277 278 280 281 282 285 287 288 289 291 291 289 289 290 292 295 299 301 302 302 302 302 302 302 300 299 296 298 298 295 293 292 292 290 290 290 291 292 293 294 294 294 294 294 294 294 294 294 293 293 290 288 288 287 286 287 286 283 281
265 264 264 264 264 264 264 264 263 263 264 264 264 265 266 266 267 268 268 268 269 270 272 275 277 278 278 279 281 282 283 285 287 289 290 291 290 288 289 290 291 294 298 300 302 302 301 297 299 302 300 299 297 298 297 294 293 292 291 290 290 290 290 290 291 292 293 293 293 293 293 294 293 294 294 293 293 291 289 287 287 288 286 285 283
263 263 263 263 263 263 263 263 263 263 263 263 264 264 265 266 267 268 268 268 269 271 273 275 277 279 280 281 282 283 284 286 288 289 290 291 290 289 289 290 291 294 297 298 299 300 300 296 296 299 300 299 297 298 297 295 293 292 292 291 290 290 291 290 290 289 289 289 290 291 290 291 291 291 291 293 292 291 290 290 289 288 287 286 285
263 263 263 263 262 262 263 262 262 262 263 263 264 265 266 266 267 267 268 269 269 271 274 276 277 278 280 281 284 285 285 285 286 289 290 291 291 290 290 290 291 294 296 298 297 298 299 298 296 298 299 298 297 298 297 296 294 293 293 292 291 290 291 290 290 290 289 289 289 289 289 289 289 289 290 290 290 290 290 290 289 289 288 287 286
262 262 261 261 261 261 262 262 262 263 263 264 265 265 266 266 267 267 268 269 270 272 273 275 277 278 279 281 283 286 286 286 287 289 291 291 292 291 290 291 293 295 296 295 297 297 297 298 298 297 298 297 297 297 297 296 296 293 293 294 293 293 292 291 290 290 290 289 289 288 289 289 289 289 289 289 289 289 290 290 290 290 290 288 286
261 261 260 260 260 261 261 262 263 263 264 265 265 266 267 268 268 268 269 269 270 272 274 277 278 279 280 281 284 286 287 288 288 289 290 291 292 292 291 291 294 295 295 296 297 297 297 298 298 297 297 296 296 297 297 297 296 293 294 296 295 294 291 291 290 290 290 290 289 289 289 289 289 288 288 288 289 289 289 289 289 289 290 291 289
260 259 259 259 260 260 261 262 263 264 264 266 267 267 268 269 269 270 270 270 271 272 275 278 279 281 283 285 286 286 287 287 288 288 290 291 292 292 293 293 295 295 296 295 296 297 297 298 297 295 296 295 296 297 297 297 295 295 296 296 295 294 292 291 290 290 289 289 289 289 289 289 289 288 288 288 288 289 289 289 288 288 289 289 290
259 258 259 259 260 260 261 262 263 265 267 268 269 270 270 271 271 272 272 273 274 276 278 280 281 282 283 283 285 286 287 288 289 289 289 291 292 293 294 294 296 295 296 296 296 297 296 296 295 295 295 295 295 296 296 296 294 296 296 295 294 292 292 291 290 291 290 289 288 289 289 289 289 288 288 288 289 289 289 289 288 288 289 289 289
257 257 258 259 260 260 261 262 264 266 267 268 267 268 270 273 273 275 276 277 278 280 281 281 281 282 283 284 285 286 288 288 289 290 290 290 292 293 294 295 296 296 295 296 295 297 296 295 295 294 294 295 295 295 295 294 295 295 294 294 292 292 291 291 291 291 290 289 289 289 289 289 289 289 289 289 289 289 288 289 288 288 288 287 285
257 257 258 259 260 261 261 263 265 266 266 267 267 268 269 270 272 276 280 282 282 282 282 282 283 284 284 285 286 287 288 289 289 290 289 290 290 292 294 294 295 295 295 295 294 295 295 294 294 293 294 293 293 294 293 293 293 293 293 292 292 292 291 291 290 290 289 289 289 289 289 289 289 289 288 289 288 288 288 288 287 286 286 286 284
256 257 258 259 260 261 262 263 264 265 265 266 267 267 268 269 271 273 276 279 282 283 283 283 283 284 284 285 286 287 287 288 289 290 290 290 290 291 293 294 294 294 294 293 293 294 293 293 293 293 293 293 292 292 293 292 292 292 292 292 292 292 291 291 291 290 290 290 289 290 290 290 289 288 288 288 288 289 288 287 287 287 286 287 287
256 257 258 260 261 262 263 264 264 264 264 265 265 266 267 268 269 271 273 275 278 279 281 283 284 284 284 285 286 286 287 288 289 289 289 289 290 292 293 293 294 294 294 294 294 293 293 292 292 292 292 292 292 291 292 291 291 291 291 292 292 292 290 290 290 290 291 290 290 290 289 289 288 288 288 288 288 288 288 287 287 286 286 286 286
256 257 259 260 260 262 263 263 263 263 263 264 265 266 266 267 269 272 275 278 278 278 280 282 285 286 286 286 286 286 287 288 288 290 289 290 290 291 292 293 294 295 294 294 292 292 292 292 291 291 291 291 290 290 290 290 290 291 290 291 291 291 291 290 290 290 290 290 290 290 289 289 288 288 288 287 287 287 287 287 287 287 286 287 286
256 257 259 259 260 262 262 262 262 263 263 263 263 264 268 271 271 270 271 275 278 280 281 282 284 286 286 286 287 286 287 288 290 291 291 291 292 293 293 293 294 294 294 294 293 292 292 291 291 291 290 291 290 290 290 290 290 290 290 290 290 290 290 290 291 291 290 290 290 289 289 288 288 287 287 287 287 287 287 287 286 287 286 285 285
257 258 258 259 261 261 261 261 262 262 262 262 262 263 263 265 270 272 273 274 276 278 279 280 281 282 283 285 287 289 290 291 291 291 291 292 292 293 293 293 293 293 294 292 293 292 291 291 290 291 290 291 290 290 290 289 289 289 289 289 290 290 289 290 290 290 290 290 290 289 289 288 288 287 287 287 287 286 286 287 287 287 286 286 285
257 257 258 260 261 261 261 261 261 261 261 261 261 261 261 261 262 268 270 271 273 275 276 277 278 279 281 283 284 287 289 290 291 291 291 291 292 292 292 293 293 293 294 294 292 292 292 291 291 290 290 290 290 290 290 290 290 290 289 289 289 290 289 289 290 290 290 290 289 289 289 288 288 288 288 287 287 287 286 286 286 286 286 286 286
257 258 259 260 261 261 260 260 260 260 260 260 260 260 260 260 259 259 262 268 270 272 274 275 276 276 277 279 281 282 284 287 290 291 291 291 291 292 292 293 293 294 294 292 292 292 292 292 291 291 290 290 291 291 290 291 290 290 290 289 289 289 289 290 289 290 290 290 290 289 289 289 288 288 287 287 287 286 286 286 286 286 286 285 285
257 258 259 260 260 260 260 260 259 259 260 259 259 259 259 259 259 259 259 259 261 265 269 271 273 274 274 276 278 279 280 281 282 284 287 290 291 292 292 291 294 294 293 292 292 291 291 292 291 291 291 291 291 291 290 291 291 291 290 290 290 290 290 289 289 289 290 290 290 289 289 289 288 288 287 287 287 287 286 286 286 285 285 285 285
257 258 260 260 260 260 260 259 259 259 259 259 258 259 258 259 259 258 258 257 258 258 260 263 267 271 269 270 274 276 277 278 278 279 281 283 288 292 292 290 291 291 292 293 292 292 291 291 291 291 291 291 291 291 291 291 291 291 291 290 290 290 290 289 290 290 290 290 290 290 289 289 289 289 288 287 287 286 286 286 286 286 286 285 285
257 257 258 259 259 259 259 259 259 259 259 258 258 258 258 258 258 257 257 258 257 257 258 261 262 266 269 268 270 272 274 275 275 276 276 277 278 283 286 288 289 290 290 291 291 291 292 292 292 291 291 291 291 291 291 291 291 291 291 291 290 290 290 290 289 290 290 290 290 290 289 289 289 289 289 288 287 287 287 286 286 286 286 286 286
256 257 258 259 259 259 258 259 258 259 260 258 258 258 258 258 257 257 257 256 256 256 256 258 261 260 263 261 264 267 270 271 272 271 272 273 273 269 268 269 271 274 275 276 282 287 289 290 291 291 291 291 291 291 291 291 291 291 290 291 291 291 290 290 290 290 290 290 290 290 289 290 290 289 288 288 288 288 287 287 287 286 286 286 286
256 256 257 259 258 258 257 257 258 259 257 257 257 257 257 257 256 256 256 255 256 255 255 256 261 259 258 258 262 261 262 265 267 265 265 266 262 262 262 264 266 266 267 269 271 273 275 276 280 286 289 291 291 291 291 291 291 291 291 290 291 291 290 290 289 289 290 290 290 290 290 290 290 289 289 288 288 288 287 287 287 286 286 286 286
255 257 258 259 259 257 257 257 257 256 256 256 256 256 256 256 256 255 255 255 255 255 255 255 256 259 259 259 257 259 259 256 256 256 257 258 259 259 260 261 262 263 265 266 267 267 267 268 270 273 276 280 287 289 290 290 290 291 290 290 290 290 290 290 289 289 290 290 290 290 290 290 290 290 289 289 288 288 288 287 287 287 286 286 286
254 255 256 258 257 256 256 256 256 256 256 255 255 255 255 255 254 255 254 254 254 254 254 254 254 257 260 260 258 256 255 255 255 255 255 256 256 257 257 258 260 260 261 263 264 265 266 266 267 267 268 270 272 277 285 288 290 290 290 290 290 290 290 290 290 290 289 290 290 290 290 290 290 290 289 289 289 289 288 288 287 287 287 287 286
253 254 255 257 256 255 255 255 255 255 255 255 255 254 254 254 254 254 254 254 254 254 254 254 254 255 260 261 264 260 254 254 254 254 255 255 255 256 256 257 258 258 259 261 262 264 265 265 266 266 266 267 268 269 271 275 283 287 288 289 289 289 289 289 289 289 289 289 290 290 290 290 290 289 288 289 288 288 288 288 287 287 287 287 286
253 254 254 254 255 254 254 254 254 255 255 254 254 254 254 254 254 254 254 254 253 254 253 253 254 254 258 265 263 262 255 254 254 254 254 254 254 255 256 256 257 258 258 258 260 262 263 264 266 266 266 266 267 267 267 268 269 274 284 287 287 287 287 288 288 289 289 289 289 289 289 289 289 289 289 288 288 288 287 286 286 286 286 285 285
253 253 253 254 254 253 253 253 254 254 254 254 254 254 254 253 253 254 253 253 253 253 253 253 253 254 254 260 259 259 253 253 254 253 253 254 254 254 254 255 256 258 259 260 261 263 263 263 264 266 266 266 266 267 267 266 267 268 271 275 279 282 284 286 286 287 287 288 288 287 287 287 287 287 287 287 287 287 286 286 285 285 285 285 284
252 253 253 253 253 253 253 253 253 253 253 254 254 254 253 253 253 253 253 252 252 252 252 252 253 253 253 253 254 253 252 252 252 252 253 253 253 253 254 254 255 257 258 259 260 261 262 263 263 265 266 266 266 267 267 267 267 267 267 268 270 271 271 273 277 282 285 286 286 286 286 285 285 286 285 284 285 285 285 284 283 283 283 283 283
252 252 252 252 252 252 252 253 253 253 253 253 253 253 253 252 252 252 252 252 252 252 252 252 252 252 252 252 252 252 252 252 252 252 252 252 253 253 254 254 255 255 256 257 259 260 261 262 262 263 265 265 266 266 267 267 267 268 268 267 267 268 269 270 272 275 281 285 284 284 283 283 283 283 283 282 283 283 282 281 281 280 281 280 280
251 251 251 251 251 252 252 252 252 252 252 252 252 252 252 252 252 251 252 251 251 251 251 252 252 252 252 252 252 252 252 252 252 252 252 252 252 253 254 254 255 255 256 257 257 258 259 260 261 262 263 264 265 266 266 267 267 267 268 268 268 268 269 271 272 274 276 279 281 281 281 281 280 280 279 280 280 281 280 279 279 280 280 279 279
250 251 251 251 251 251 251 251 251 251 251 251 251 251 251 251 251 251 251 251 251 251 251 251 251 251 251 251 251 251 251 251 251 251 251 251 252 253 254 254 255 255 256 256 257 257 258 259 260 261 262 263 264 265 266 266 267 267 267 267 268 268 269 270 271 272 274 275 277 277 277 277 277 277 277 278 278 278 278 277 277 278 278 278 277
250 250 250 250 250 250 250 250 250 251 250 250 251 251 251 251 251 251 251 251 250 250 250 250 250 250 251 251 251 251 251 251 251 251 251 251 251 252 253 253 253 254 254 255 256 257 257 257 258 259 261 261 263 264 265 266 266 267 267 267 268 268 268 269 270 271 272 273 274 274 274 274 274 274 274 275 276 276 275 275 275 275 276 275 276
249 250 250 250 250 249 249 249 250 249 250 250 250 250 250 250 250 250 250 250 250 250 250 249 250 250 250 251 251 251 251 251 250 250 250 251 251 251 252 252 253 253 253 254 255 255 256 257 257 258 259 261 261 263 264 265 266 266 267 267 268 270 268 268 269 270 270 271 271 272 272 272 271 271 272 272 272 272 272 272 272 272 273 273 274
249 249 249 249 249 249 249 249 249 249 249 249 249 249 249 249 249 250 250 250 250 250 250 249 249 249 249 250 250 250 250 250 250 250 250 250 250 251 251 251 252 252 252 253 254 254 254 254 255 256 258 260 261 262 263 264 265 266 267 267 268 267 267 267 268 268 268 269 269 270 270 270 270 270 270 270 270 271 270 271 271 271 272 272 272
249 250 250 249 249 248 248 248 248 249 249 249 248 248 249 249 249 249 250 249 249 249 249 249 249 249 249 249 250 250 250 250 250 249 249 249 250 250 250 251 251 251 252 252 253 253 254 254 254 256 256 259 261 261 262 264 265 266 267 268 267 267 267 266 266 267 268 267 267 268 268 268 268 268 268 269 269 269 269 269 269 269 269 270 270
Wind_Speed
17 15 14 15 16 17 18 18 19 18 19 18 17 17 18 18 17 16 16 14 13 15 15 12 10 8 7 7 7 7 6 7 7 9 11 13 14 15 15 16 16 14 16 18 17 20 20 19 17 15 15 15 13 14 15 15 15 14 13 13 11 8 9 11 16 10 4 4 8 9 10 11 8 7 9 8 7 5 6 7 7 7 7 8 7
18 18 15 14 16 16 16 16 17 17 18 18 18 17 16 16 16 17 16 16 13 14 15 16 12 10 8 7 7 7 7 7 7 8 10 12 15 14 14 17 17 17 14 16 17 17 19 20 18 16 15 17 16 15 15 16 15 14 14 14 13 11 10 8 8 15 11 4 6 4 7 10 9 7 11 10 8 6 7 6 5 6 7 7 7
17 16 16 16 18 17 16 16 16 19 20 18 18 17 17 16 16 17 17 15 14 12 13 13 15 12 8 7 7 6 7 7 7 8 10 12 14 15 15 18 19 18 19 19 19 18 19 19 19 17 14 15 15 15 14 16 15 16 16 13 14 12 10 10 11 10 14 7 8 10 8 7 9 8 6 7 8 8 10 7 7 5 4 6 7
17 17 17 18 18 18 17 16 18 18 19 18 19 19 17 15 15 17 16 15 15 15 13 13 14 13 10 7 7 7 6 7 8 8 11 12 13 14 15 16 20 21 21 21 20 19 20 19 19 18 18 18 16 14 13 14 15 15 16 14 14 14 12 9 13 12 7 11 6 10 9 11 3 4 5 6 10 9 9 6 5 6 5 5 6
17 18 17 19 19 18 19 17 18 18 19 18 20 19 19 16 14 15 16 15 16 15 15 13 12 14 12 9 7 6 6 6 8 9 10 11 13 13 15 14 14 18 20 21 21 21 21 21 20 19 19 18 16 15 14 16 15 15 16 14 13 13 11 10 10 13 13 12 8 5 9 4 3 8 11 11 5 5 4 6 7 8 6 4 4
17 19 18 18 19 20 18 21 20 19 19 19 19 18 18 17 17 15 15 16 15 14 14 14 11 14 13 9 7 7 6 6 7 8 10 11 12 13 14 14 16 16 16 18 20 20 20 21 20 20 20 20 18 17 16 17 15 15 16 14 13 13 13 12 12 12 14 13 14 7 7 10 6 5 7 11 13 8 6 5 4 4 7 6 4
17 17 19 20 22 20 21 17 18 21 18 17 17 17 17 17 17 18 16 15 14 14 14 14 14 12 14 12 9 8 8 7 7 8 10 11 12 13 14 15 15 16 18 20 20 21 21 20 20 21 22 21 21 19 18 17 15 16 16 16 14 14 13 12 13 13 13 13 10 13 13 7 11 12 8 6 9 13 15 9 5 1 3 8 8
19 20 20 22 18 23 20 19 21 20 19 18 17 17 17 16 16 15 15 16 14 12 12 14 14 13 14 12 10 8 9 9 8 8 9 11 11 12 14 15 15 16 17 19 21 21 21 21 22 22 23 21 21 20 21 18 16 15 14 15 15 15 13 12 12 13 13 13 13 10 9 11 5 3 6 8 7 2 4 11 15 10 8 5 5
18 21 21 20 24 21 21 22 19 19 19 19 19 18 17 16 15 14 15 14 13 12 10 12 14 16 14 13 11 10 10 10 9 7 9 11 11 12 13 15 15 16 17 18 19 20 19 20 20 21 22 23 26 24 23 21 17 16 15 16 15 15 14 13 13 13 12 13 11 10 12 11 12 14 11 11 12 13 10 8 10 11 10 8 3
21 21 20 24 21 21 23 20 20 19 19 19 19 18 17 17 14 15 16 16 17 14 13 12 14 16 15 16 14 13 11 9 11 16 14 11 12 12 12 14 14 15 17 16 16 19 20 19 19 26 26 26 26 27 27 25 23 19 16 15 17 16 16 15 14 14 14 14 14 14 12 12 12 14 15 13 13 11 12 9 11 8 8 7 4
21 21 24 23 20 23 20 21 21 19 20 19 17 17 16 14 14 16 15 16 16 16 14 14 12 13 14 14 14 14 13 12 18 18 18 19 14 12 12 13 15 14 16 17 16 17 17 19 18 22 24 23 23 28 27 27 24 23 23 21 18 18 17 17 15 15 15 14 13 14 15 15 15 15 16 17 14 15 14 13 14 14 14 15 13
22 24 24 21 22 21 20 19 19 20 18 16 15 13 15 14 14 16 15 18 15 14 13 13 14 13 14 15 15 14 13 16 21 21 19 19 16 13 12 12 14 13 16 18 17 17 18 17 16 16 18 20 19 21 24 27 26 24 25 25 24 24 24 20 17 14 16 15 15 16 15 16 16 15 14 14 13 12 12 12 13 16 15 14 13
23 23 20 21 20 22 18 17 17 15 15 15 15 14 15 14 15 13 16 15 15 17 15 15 14 13 14 16 16 15 15 18 22 22 20 19 18 17 12 12 13 14 14 18 18 18 17 16 16 15 16 24 20 19 19 20 24 28 26 26 26 27 26 29 30 25 20 19 19 17 18 17 18 18 18 19 17 18 15 13 13 14 16 16 13
24 20 21 21 20 18 17 18 18 17 15 15 14 16 14 15 14 13 14 16 17 17 17 15 14 14 15 16 16 15 16 18 23 22 19 19 19 17 13 13 13 15 15 16 17 18 19 17 16 16 15 16 16 17 17 18 17 18 18 18 17 22 26 28 28 27 24 20 20 22 19 19 21 20 18 18 20 19 18 17 17 16 17 19 14
17 21 22 19 17 18 20 20 20 20 19 17 14 14 13 16 13 13 13 14 16 18 16 14 13 13 13 14 15 16 14 23 24 23 20 20 20 17 12 13 13 14 14 15 17 18 19 19 18 17 16 16 17 19 18 18 18 18 18 17 16 16 16 16 17 16 15 13 16 17 17 15 14 14 14 13 16 14 15 16 17 13 7 8 10
22 21 18 18 22 21 17 20 20 21 20 20 18 17 16 15 16 14 14 14 15 16 17 15 14 13 14 14 14 16 16 26 25 23 22 20 20 12 11 12 13 14 14 14 16 17 17 18 17 17 17 17 21 27 23 19 20 21 20 17 14 13 14 15 19 18 17 15 15 16 16 17 17 16 16 14 11 9 10 11 10 9 10 8 7
20 21 21 22 20 20 22 21 22 22 22 21 20 20 18 18 17 14 15 14 15 15 17 13 12 13 16 17 18 17 16 21 25 24 23 21 15 11 11 11 12 14 14 14 16 17 17 18 18 17 18 18 23 28 28 24 19 22 20 19 15 14 13 10 16 20 21 20 21 22 21 22 22 25 27 26 17 13 11 11 11 11 11 10 6
21 20 21 21 21 20 21 21 22 22 22 21 21 20 19 17 15 13 14 14 14 15 15 15 15 14 15 16 16 15 16 18 23 22 23 22 18 12 10 11 12 13 13 14 14 15 18 24 21 18 18 19 26 29 29 24 20 21 20 19 18 16 14 11 10 12 18 18 18 18 19 20 22 24 26 27 28 23 17 17 16 14 14 14 14
20 21 23 22 22 21 20 21 21 22 22 22 20 20 19 18 16 14 14 15 16 15 15 14 13 13 13 16 23 22 17 16 21 22 23 22 17 11 11 10 13 13 13 14 13 13 15 19 25 22 20 21 29 29 30 26 21 20 21 20 20 20 17 16 15 13 11 11 10 13 12 17 17 16 19 28 26 23 20 19 16 16 15 12 10
21 22 23 22 21 21 20 21 22 21 23 23 21 19 17 16 16 15 15 14 14 14 13 14 15 13 12 15 14 17 17 15 16 23 22 22 23 14 10 12 13 14 13 13 13 12 14 15 20 27 26 27 29 30 30 31 23 20 18 19 20 22 15 16 17 16 15 15 13 12 13 13 13 14 16 19 20 20 16 13 16 16 15 15 13
23 22 21 22 22 22 20 19 22 22 20 19 19 18 16 15 15 14 15 14 14 14 15 17 15 15 15 15 16 16 14 15 15 21 22 23 24 20 12 14 14 13 13 14 14 14 14 15 15 23 27 28 30 31 32 32 27 21 21 21 22 19 18 15 18 22 16 14 12 10 10 11 12 12 14 16 16 16 15 15 15 16 16 15 14
21 22 23 23 23 22 22 21 19 18 19 18 17 16 14 14 14 14 13 13 15 17 16 15 12 14 14 16 17 15 13 17 14 18 23 24 24 25 16 14 15 13 14 14 14 14 15 14 14 20 27 28 29 31 33 31 30 19 23 26 23 23 20 15 13 11 11 12 11 11 11 11 11 11 12 14 14 15 14 13 14 16 16 18 21
22 22 22 22 21 21 21 22 19 16 16 16 16 15 13 11 13 13 14 14 15 17 17 16 14 15 13 10 8 9 11 12 19 17 21 24 24 24 25 18 21 15 14 15 16 15 13 15 15 23 25 26 29 31 30 33 28 22 28 24 22 27 22 13 13 13 11 11 12 13 13 14 14 14 13 14 14 15 15 13 13 14 13 12 13
20 20 20 19 20 20 19 20 18 15 14 14 15 15 13 11 11 10 12 13 13 14 13 12 11 11 10 9 8 9 10 11 14 21 18 22 22 23 23 24 22 15 15 14 13 13 13 14 15 25 26 27 29 29 29 29 22 26 25 26 25 23 15 13 14 15 14 14 14 15 15 14 13 13 14 14 15 16 16 15 15 17 17 14 13
22 22 23 21 19 17 17 16 15 17 17 16 16 16 17 15 10 10 11 12 13 13 12 10 10 10 10 9 9 8 9 9 10 13 19 19 21 20 21 25 25 23 16 12 12 13 17 22 24 26 26 26 29 29 26 28 29 24 24 24 22 13 14 15 16 15 16 17 18 17 16 14 15 15 13 12 12 12 12 14 14 13 9 6 5
23 24 22 21 22 24 19 17 17 17 19 15 14 13 15 15 15 14 11 10 10 10 11 10 10 9 9 9 9 9 9 8 8 9 10 14 15 19 22 25 26 25 21 15 18 22 23 24 27 28 27 23 19 16 14 18 25 25 25 24 15 15 15 14 14 16 18 18 17 16 15 13 11 9 10 12 13 15 15 13 11 9 10 10 8
21 21 22 21 21 18 17 16 19 18 16 14 13 13 12 13 13 13 12 13 11 10 10 10 10 9 9 9 9 8 8 7 7 7 7 7 7 11 16 18 24 23 17 13 16 15 19 20 17 19 16 22 23 21 20 20 18 15 12 13 13 13 13 15 17 18 17 15 14 14 12 11 9 9 11 14 16 15 14 13 13 13 12 12 13
20 21 23 19 18 16 16 24 22 15 14 15 16 15 13 12 12 12 12 12 13 15 14 11 9 8 8 8 7 7 8 7 6 7 6 6 6 7 10 12 13 13 12 11 13 15 16 17 19 16 15 14 14 10 10 9 10 11 11 12 13 13 15 18 14 11 11 13 13 12 9 11 13 15 13 13 14 13 13 13 14 13 12 12 11
16 20 18 18 17 14 16 16 16 16 15 16 13 13 13 15 14 14 13 11 13 16 15 12 8 7 7 7 7 7 7 7 7 7 6 8 8 8 10 11 12 13 15 18 13 12 12 12 11 12 13 14 13 13 13 13 13 14 17 15 13 12 11 11 13 14 13 11 12 14 16 15 14 12 13 13 12 11 11 12 12 12 12 12 16
19 19 18 15 13 16 16 16 18 16 16 15 19 18 17 18 16 14 15 23 27 28 25 10 7 6 7 6 6 8 7 7 9 9 9 10 12 14 12 13 15 14 17 23 17 12 13 13 14 14 15 14 14 13 13 12 13 13 13 15 14 13 14 15 14 13 11 12 12 12 13 13 13 14 14 14 12 11 13 15 13 12 13 15 15
16 16 14 12 16 17 16 17 18 16 16 17 16 17 19 19 23 25 26 28 25 29 29 30 30 28 18 6 9 11 11 11 9 10 10 11 11 12 15 15 15 13 19 17 14 14 12 13 12 12 13 13 13 13 13 13 14 14 13 13 13 15 15 13 13 12 12 13 12 12 12 13 14 14 15 15 15 13 12 12 12 13 15 16 15
15 14 13 13 17 19 16 17 18 17 17 17 16 16 16 18 20 28 33 31 31 28 31 32 31 28 30 26 16 5 9 10 10 11 12 12 12 12 15 15 18 19 20 19 13 12 13 13 13 13 13 14 14 13 13 13 14 14 13 13 14 14 15 15 14 14 13 13 13 12 12 13 13 13 13 13 13 13 14 15 14 15 15 13 15
14 17 15 14 16 18 17 17 17 17 18 18 17 17 17 17 18 19 25 30 30 27 30 34 33 31 31 32 33 28 26 17 10 11 11 10 11 13 16 18 18 21 20 10 9 12 12 12 12 12 12 13 13 12 12 13 13 13 14 15 15 14 14 12 11 12 13 14 14 14 14 13 12 12 12 12 14 15 15 16 16 15 14 15 15
16 13 13 16 16 16 16 16 16 16 16 17 15 16 16 16 16 16 17 19 24 27 29 33 34 33 31 32 32 32 30 26 28 25 15 3 11 10 13 13 19 22 18 10 8 8 9 11 12 12 12 12 11 12 12 12 12 13 13 13 13 12 11 9 10 13 11 13 14 14 15 15 15 15 14 14 14 14 14 14 15 15 15 16 16
14 16 22 18 14 14 14 15 15 15 16 17 17 16 15 16 16 16 16 16 16 16 16 17 25 32 26 23 31 33 31 30 30 28 27 26 10 10 9 6 8 9 10 9 9 7 8 7 8 10 11 11 11 12 13 13 12 13 13 12 11 10 10 12 13 14 13 13 13 13 13 15 16 16 16 16 15 15 15 15 15 16 17 16 15
15 13 12 16 15 14 14 14 15 15 15 15 14 15 15 15 16 15 15 14 15 15 15 13 12 16 33 33 36 31 32 33 32 33 34 31 29 19 7 3 5 7 6 2 3 6 8 8 8 8 9 9 10 11 11 11 12 12 11 11 11 11 12 13 13 13 13 13 13 14 13 13 12 13 14 16 19 19 17 18 17 17 17 16 16
13 12 13 14 14 14 14 13 13 16 16 14 13 13 14 15 15 14 14 15 16 15 13 13 17 19 25 23 29 27 29 29 34 37 34 33 33 21 12 11 10 10 11 10 9 8 3 0 3 6 8 9 10 11 10 11 11 11 10 10 10 11 12 12 13 12 13 13 12 12 12 13 14 13 13 14 15 16 16 16 17 18 19 20 19
13 13 13 15 13 13 13 13 15 19 16 15 14 13 13 14 15 15 15 15 17 16 15 14 15 18 20 19 27 18 15 27 41 34 31 30 23 15 14 12 13 12 10 10 10 9 9 9 10 7 0 6 9 8 9 10 9 9 10 10 10 11 14 14 15 15 15 14 14 14 13 13 12 13 13 15 15 15 16 16 16 16 16 17 15
11 18 24 25 18 14 12 13 14 15 14 15 14 15 16 15 14 15 15 14 14 15 14 13 12 17 19 16 18 19 21 21 17 16 14 14 14 13 11 12 12 11 11 10 10 11 10 10 9 8 9 9 4 4 8 9 9 10 10 9 10 9 11 10 12 13 13 13 13 13 14 14 13 13 13 14 14 14 15 15 15 16 16 16 17
11 11 15 24 14 15 13 12 13 13 14 14 14 14 14 15 14 14 14 14 15 15 14 15 16 13 17 20 19 16 16 16 13 11 12 13 14 13 14 13 12 12 12 11 11 10 10 9 8 9 9 9 9 10 8 1 7 9 9 10 10 11 11 12 12 13 13 13 12 12 13 13 13 13 13 14 14 14 15 15 15 16 16 15 16
9 9 10 13 16 13 12 12 11 13 13 13 13 14 13 14 13 13 13 13 13 13 14 14 16 14 18 26 34 27 12 13 12 12 13 13 12 13 12 12 11 12 11 10 9 10 8 7 9 10 9 9 9 9 9 9 9 3 4 6 7 8 9 9 10 10 11 11 11 11 11 12 11 11 13 13 14 12 10 10 10 10 11 12 13
9 9 10 9 11 11 10 11 11 13 12 13 14 14 14 14 12 13 13 13 13 13 12 12 13 14 20 38 33 35 19 12 14 13 12 13 14 14 12 10 10 12 11 11 11 13 9 9 11 11 10 10 10 10 12 12 9 8 6 1 3 4 5 6 7 8 9 9 10 10 10 10 11 12 13 11 10 10 9 10 9 9 9 9 8
9 8 8 9 10 11 11 10 11 11 13 12 11 12 14 14 13 12 12 12 13 13 12 12 12 13 16 27 28 30 16 13 13 14 13 12 11 12 12 11 10 11 13 12 12 12 11 10 11 13 12 12 12 11 11 10 9 9 9 9 8 6 3 0 3 6 7 8 9 9 9 9 9 9 9 8 9 9 10 9 9 10 11 11 11
8 8 8 8 9 8 9 10 11 11 10 12 12 11 12 11 11 11 12 12 12 13 12 11 11 12 11 15 18 18 14 13 13 13 14 14 14 12 9 8 9 11 13 13 13 13 12 13 12 12 13 12 12 12 12 11 11 9 9 9 9 8 8 8 7 3 2 5 6 6 7 7 7 7 7 7 8 9 9 8 8 8 8 8 8
8 8 9 9 9 9 9 9 9 10 11 10 10 11 12 11 12 11 12 11 12 12 11 12 12 12 13 14 14 14 14 12 13 14 14 12 11 10 11 9 12 12 11 12 13 14 14 13 13 14 14 13 13 13 12 12 12 11 10 8 8 8 9 8 6 7 4 4 5 6 6 6 6 6 6 6 7 8 7 8 8 7 8 7 8
8 8 9 8 9 10 9 9 9 9 10 11 11 11 11 11 12 12 11 12 11 11 11 11 11 12 12 11 12 13 12 12 12 12 12 12 11 13 16 12 12 14 13 12 12 13 14 14 14 14 14 14 14 13 13 13 12 12 12 11 10 7 7 7 7 7 7 5 3 4 5 5 5 4 6 6 6 6 6 6 6 7 8 8 8
7 7 7 8 8 9 9 9 9 9 9 9 9 9 9 10 10 10 10 12 11 11 11 11 11 11 11 11 12 11 12 12 11 12 11 10 11 13 14 14 16 14 14 14 15 13 13 15 14 15 15 14 14 15 14 13 13 12 12 12 12 13 11 8 8 8 8 8 7 6 6 6 6 6 5 6 6 6 6 6 6 7 6 7 7
6 7 7 8 7 8 9 9 10 9 9 8 7 8 8 8 9 10 9 10 10 11 10 9 9 10 10 11 11 10 10 10 9 9 10 10 10 10 12 12 12 13 11 13 14 14 14 14 15 14 14 15 15 14 14 14 13 14 13 13 13 14 17 16 10 11 9 9 8 8 8 8 7 6 6 6 6 6 7 6 6 5 5 6 5
6 6 6 7 7 8 8 9 9 9 9 9 9 8 7 8 8 7 8 8 8 9 8 9 9 10 9 9 9 8 9 9 9 10 10 10 10 10 10 10 11 10 11 13 13 14 14 15 13 10 13 13 14 14 14 14 15 14 15 14 19 28 26 25 15 12 13 10 9 9 9 9 9 9 8 8 7 7 7 7 7 7 6 6 6
5 6 5 6 6 7 7 6 6 7 8 8 9 9 8 7 7 7 7 7 7 7 8 8 8 8 8 8 9 9 10 10 10 9 10 10 9 9 9 10 10 10 9 10 11 11 10 10 9 9 11 13 14 14 13 13 14 14 14 17 27 28 26 25 25 23 14 10 11 9 10 10 10 10 9 8 8 9 9 8 7 7 7 7 7
5 5 5 5 5 5 6 6 7 7 7 8 8 9 8 9 8 7 7 7 7 7 7 7 7 8 7 7 8 8 8 8 8 8 8 9 9 10 9 9 10 10 9 10 9 8 9 9 10 12 10 12 14 13 13 13 13 16 21 27 28 28 28 24 17 21 23 15 11 11 11 12 12 11 10 9 9 10 10 10 9 8 7 7 7
Wind_Direction
311 310 310 306 304 304 304 304 303 302 300 298 297 299 300 302 302 304 304 303 310 311 306 274 250 241 243 245 255 258 266 277 286 289 287 286 280 264 206 182 183 188 180 179 176 173 172 171 172 170 164 160 164 162 162 164 165 164 167 168 172 164 168 174 160 135 85 94 139 159 160 146 157 166 146 146 155 149 140 152 152 158 165 171 173
317 313 311 308 306 304 302 302 301 300 298 297 296 296 295 297 301 302 300 301 303 303 305 304 277 250 236 240 248 256 258 268 273 278 280 280 279 276 232 188 187 183 181 176 174 176 174 172 172 169 171 164 160 162 162 163 163 162 168 173 173 168 166 149 146 148 148 118 111 120 148 162 148 169 158 153 156 142 144 146 155 157 162 156 156
312 310 309 310 308 306 304 302 301 300 300 298 295 293 293 294 299 299 300 301 300 297 298 301 297 266 241 236 242 252 260 267 268 270 273 273 275 274 253 201 186 185 180 179 178 176 175 173 172 169 172 165 164 162 161 163 162 165 169 171 169 165 165 152 138 148 148 149 146 145 160 162 158 168 163 154 146 145 143 153 154 149 144 150 150
316 312 309 307 306 306 305 303 299 297 296 297 295 294 293 294 294 293 295 300 301 303 300 299 302 287 257 243 236 243 257 264 275 274 276 276 275 273 264 225 189 182 183 180 178 176 174 173 173 170 171 170 169 163 166 162 163 166 166 170 167 164 164 160 151 141 148 135 171 156 167 157 141 130 118 122 142 150 152 140 130 136 143 146 147
316 311 308 306 305 304 304 304 301 298 295 294 295 295 294 292 290 290 293 294 299 300 300 298 296 293 272 250 246 247 250 263 274 282 282 281 279 276 269 238 198 183 180 179 176 176 175 175 172 171 171 170 169 169 168 167 166 166 168 166 167 162 158 156 153 144 147 153 149 150 154 136 129 151 151 138 108 89 102 139 155 150 136 133 136
316 313 310 307 305 304 303 304 301 299 296 294 293 293 294 295 294 292 289 289 292 294 296 296 294 293 283 264 256 255 256 260 267 276 283 285 281 277 274 249 206 185 182 178 176 177 175 175 171 171 173 172 173 174 171 168 166 169 168 166 163 159 157 153 151 151 147 152 150 140 156 150 135 154 172 149 142 131 107 87 81 116 134 125 146
312 309 307 306 308 306 306 301 302 299 298 294 294 293 292 293 294 293 291 286 287 291 294 295 294 291 288 277 265 261 262 263 269 275 281 281 277 274 272 262 220 190 185 181 180 179 178 176 174 175 177 177 173 171 170 168 171 173 171 166 163 159 155 153 153 149 147 147 157 158 155 164 158 160 175 158 151 156 151 139 124 128 140 150 147
312 310 310 308 305 307 304 303 301 298 296 295 294 294 293 292 289 287 288 286 284 282 289 293 294 293 285 278 266 262 262 266 266 271 275 278 277 271 268 265 230 195 187 184 181 181 180 178 177 179 181 180 175 173 167 168 169 170 171 165 165 161 156 151 148 147 147 150 154 157 159 147 114 80 116 131 125 103 184 156 156 165 176 178 174
310 308 308 307 308 304 304 304 300 298 296 294 293 291 290 286 287 288 287 286 285 283 280 283 287 288 284 281 276 265 262 262 262 261 272 277 280 277 271 269 241 202 186 186 183 181 180 181 182 182 183 180 178 173 172 167 166 170 172 167 164 160 154 154 152 149 151 149 150 154 154 161 161 153 159 164 166 167 177 183 169 161 149 135 112
311 307 305 309 307 306 304 301 301 299 297 295 293 292 291 291 286 283 280 280 280 278 276 273 276 279 281 277 275 275 269 262 260 258 257 266 278 281 280 276 256 212 185 183 183 183 182 184 185 183 181 180 178 177 172 168 172 170 169 168 164 160 158 157 158 158 155 159 161 160 158 165 166 168 163 176 174 165 161 151 144 142 132 126 111
314 310 310 307 307 308 305 301 300 299 297 294 289 285 280 277 281 284 284 281 276 273 267 266 266 271 272 272 267 264 263 260 260 259 259 261 269 279 278 273 269 229 190 180 181 184 186 186 186 184 182 181 180 180 172 172 174 168 166 167 167 162 157 159 163 160 162 163 163 164 167 167 173 172 175 174 177 169 165 164 158 156 159 157 171
311 309 307 307 306 307 308 301 296 294 292 287 284 280 279 276 271 272 273 277 274 273 266 264 266 267 268 270 266 260 257 254 255 257 256 258 263 271 276 275 270 245 200 183 183 182 186 188 186 181 185 184 182 182 177 174 172 171 170 168 170 169 165 164 161 165 166 162 168 175 167 173 173 177 181 173 168 163 170 162 162 164 167 174 167
311 306 302 303 306 305 303 297 292 286 286 287 286 284 280 276 277 280 281 282 277 265 258 257 254 259 262 266 264 258 256 254 252 252 252 254 261 268 274 274 267 257 217 188 182 183 183 185 185 181 187 184 180 180 178 176 174 172 172 172 174 175 176 172 169 171 171 167 170 174 179 172 174 188 182 173 166 169 167 168 170 175 178 177 184
310 306 306 304 303 303 301 300 293 291 289 287 285 286 283 281 281 279 278 277 276 272 262 254 253 254 258 263 265 264 258 251 249 248 248 249 256 263 271 272 267 257 230 196 184 182 182 183 184 182 179 177 179 180 177 172 173 172 171 175 180 183 178 177 177 173 172 174 173 178 185 173 181 182 179 167 168 173 170 176 175 177 182 188 179
300 302 300 300 300 303 303 298 297 298 296 291 285 281 280 283 278 277 274 272 273 274 265 253 247 246 248 252 256 259 258 254 251 248 247 246 252 259 265 269 265 258 238 205 185 184 182 183 184 181 174 173 178 177 174 172 169 173 176 179 180 181 182 182 179 177 177 173 176 178 176 185 175 164 166 177 177 170 175 176 176 172 137 72 69
304 309 306 306 307 305 302 301 299 297 297 294 288 284 279 276 278 277 276 272 270 274 270 254 250 253 257 256 253 252 251 252 250 247 246 247 250 254 260 262 261 254 238 211 189 184 183 181 180 178 174 175 178 175 174 170 171 173 175 176 177 180 186 186 178 175 174 175 177 176 179 175 167 163 165 161 149 127 113 101 98 119 132 131 128
304 304 306 308 307 307 304 301 297 297 296 293 288 284 281 280 277 272 269 269 270 271 271 262 262 262 260 256 254 252 250 248 247 245 244 243 244 248 253 257 254 248 234 211 193 183 181 181 178 177 175 178 177 175 173 167 171 173 173 173 176 177 183 179 180 179 178 177 177 178 174 171 168 164 160 159 156 138 127 134 159 152 151 151 148
308 309 310 309 304 302 301 299 297 295 293 288 286 285 281 275 272 271 269 270 269 268 267 265 257 251 252 255 250 247 248 244 242 240 239 240 236 241 245 250 250 240 230 209 196 184 182 180 178 176 177 179 176 175 169 166 170 173 173 171 173 178 182 175 167 178 176 173 173 173 170 169 165 161 164 165 160 155 161 175 170 164 174 170 171
314 311 307 308 308 307 303 299 294 292 289 285 283 281 279 276 274 268 264 266 267 270 264 262 261 254 248 246 247 247 246 244 238 238 237 236 235 235 240 243 242 233 217 204 194 184 182 181 179 178 178 176 176 176 171 169 171 174 174 172 178 183 184 172 169 163 164 166 172 167 169 165 158 162 169 169 169 172 178 173 164 173 172 174 162
312 309 309 309 308 304 301 298 295 291 287 284 279 272 266 267 266 265 264 262 263 263 265 260 251 248 245 252 253 238 239 240 238 238 236 235 234 234 231 233 232 223 209 196 189 186 180 181 186 181 177 173 176 177 175 175 173 174 172 179 181 188 175 171 173 167 169 173 171 166 165 163 162 165 170 173 176 179 180 173 174 173 173 172 170
312 311 309 308 305 299 293 286 283 280 274 271 272 271 270 266 259 257 259 258 256 258 257 258 261 265 262 259 257 247 236 235 237 233 235 236 235 232 227 224 225 212 203 193 188 183 181 184 186 186 176 174 176 179 179 181 176 172 179 186 189 176 157 170 174 167 165 166 159 156 159 165 170 172 174 177 179 182 183 178 176 179 172 167 169
312 311 309 305 303 302 299 295 288 280 275 270 268 265 254 247 252 252 250 250 253 258 259 258 253 255 259 253 243 234 227 231 236 236 236 236 235 227 223 220 215 204 197 191 188 183 180 183 183 185 180 174 178 181 181 180 176 175 190 190 174 147 164 170 159 157 158 159 160 161 166 170 173 178 178 180 181 182 185 183 182 184 185 178 175
317 314 310 306 301 297 295 289 288 284 277 273 269 268 265 248 242 241 242 245 248 251 253 253 256 259 251 234 229 232 234 237 237 238 237 235 232 227 220 218 210 201 193 190 188 181 176 175 177 178 180 177 179 182 182 182 180 187 188 180 163 162 165 154 154 158 159 166 170 180 182 182 180 182 180 181 183 182 184 184 185 188 195 198 199
316 312 311 308 301 297 294 292 287 287 292 299 299 287 277 260 244 236 235 241 247 248 250 249 254 261 258 255 242 236 239 236 240 236 234 231 229 226 220 213 207 197 194 190 185 174 168 172 172 176 178 177 180 183 183 182 186 190 180 177 166 157 158 162 167 170 167 172 183 191 192 191 188 184 185 181 178 182 183 184 189 192 193 196 194
318 315 316 315 312 300 289 289 303 313 315 314 310 308 306 300 269 250 243 245 245 252 258 256 254 254 257 255 255 250 242 240 237 238 231 230 228 224 217 208 203 194 191 189 175 175 172 168 167 173 177 177 179 182 183 185 189 185 176 170 159 159 168 171 173 171 176 185 192 195 194 192 192 191 176 169 171 175 182 194 197 193 182 154 149
319 318 317 317 318 314 297 303 316 320 318 313 305 306 306 309 310 308 291 264 251 250 251 252 248 249 254 254 257 256 254 247 245 241 231 228 226 220 212 203 198 192 187 178 179 171 168 165 167 173 175 176 176 178 180 188 190 180 173 165 166 170 174 173 175 176 186 189 188 189 191 185 185 172 164 166 170 185 190 188 173 175 170 172 161
317 319 321 321 320 314 315 321 323 319 317 314 312 309 308 307 307 306 309 315 305 278 264 256 256 258 253 256 257 263 261 256 249 236 226 215 211 210 203 199 194 189 184 173 169 163 163 164 166 167 167 171 172 177 183 187 185 176 167 168 173 176 175 178 180 186 188 183 184 188 182 174 159 149 169 179 189 189 181 178 183 186 179 182 188
318 319 323 323 324 322 323 326 324 320 321 323 320 319 315 311 308 307 309 309 311 311 297 272 257 250 255 253 259 265 266 266 242 227 218 207 202 193 190 186 185 180 175 168 164 163 163 167 163 163 163 165 171 171 173 165 167 164 169 177 185 184 183 184 183 189 189 186 183 173 163 158 169 183 182 186 188 182 178 180 183 183 183 176 187
315 320 322 332 326 325 331 325 327 325 321 319 318 316 315 319 320 317 320 322 323 313 277 273 267 252 249 256 263 263 273 269 242 225 208 198 190 183 179 179 175 176 174 163 157 154 150 152 150 158 162 168 171 174 172 172 175 177 178 183 185 181 177 181 187 192 189 183 182 179 179 177 180 177 177 183 187 178 179 183 185 179 180 187 197
326 331 334 324 318 336 335 333 330 331 331 330 328 325 328 332 334 335 331 332 337 350 5 358 335 278 260 254 244 258 268 266 255 225 205 199 188 181 178 171 173 169 163 156 150 149 156 158 165 168 171 174 176 174 171 172 174 177 182 183 182 184 186 190 193 185 178 182 184 182 182 177 176 177 183 185 180 177 178 183 184 182 178 193 201
331 331 325 321 334 339 336 336 333 335 336 336 334 337 335 336 339 345 346 341 347 358 8 16 18 16 10 310 265 270 265 272 245 209 192 186 182 178 167 155 152 150 156 151 151 156 160 164 166 168 170 172 174 175 173 174 177 177 179 181 185 188 190 192 190 182 181 183 183 186 183 182 183 181 183 183 180 179 178 187 184 186 194 196 197
330 327 320 325 339 344 341 338 336 339 340 340 343 345 346 343 336 339 346 348 350 360 10 16 15 15 14 17 17 294 286 286 251 216 196 184 177 166 155 147 145 148 160 156 155 163 168 169 170 172 171 174 178 175 174 176 177 178 176 180 191 194 191 193 185 180 183 182 182 184 185 187 187 184 184 179 179 179 182 185 191 194 199 199 204
331 336 326 333 342 344 345 343 342 343 346 345 347 351 352 351 348 339 334 340 349 1 10 14 15 13 16 18 22 21 20 9 302 226 199 187 178 166 158 152 148 150 149 161 164 166 170 170 171 171 172 177 175 175 176 179 178 180 180 185 189 192 194 189 170 180 182 183 182 186 186 187 184 182 182 180 181 187 187 191 194 195 194 198 206
338 330 327 336 344 345 347 344 345 347 349 347 347 354 354 353 349 342 341 343 347 349 358 6 10 14 12 18 23 23 21 24 30 27 18 223 176 165 163 160 160 155 154 163 167 175 178 175 172 171 175 173 171 172 176 179 181 183 186 191 192 188 179 152 163 186 190 189 190 189 187 185 183 181 184 186 190 190 188 193 192 193 197 201 201
339 331 334 344 352 346 345 343 348 349 354 351 351 352 354 355 354 353 353 352 347 349 337 346 358 13 15 15 18 21 22 24 31 32 28 22 19 166 130 135 155 166 166 165 175 174 180 185 177 175 172 171 173 176 178 179 182 186 187 188 184 176 168 172 184 187 187 189 194 196 192 190 187 187 184 185 185 190 194 195 196 199 200 198 197
344 335 333 348 352 351 346 344 346 350 353 350 349 351 354 356 357 357 353 351 354 348 341 345 349 355 16 19 14 14 19 25 34 36 34 32 31 40 57 73 148 171 176 157 188 183 182 186 180 178 172 171 170 173 176 178 184 187 188 183 178 176 177 181 187 184 186 192 198 197 193 197 197 197 191 187 189 192 195 194 196 200 202 201 197
345 343 347 353 352 350 346 345 345 351 350 347 342 348 354 357 358 358 358 2 3 352 344 333 0 1 13 14 5 1 12 25 38 37 36 37 39 42 38 30 25 33 26 11 8 8 20 221 191 175 176 175 175 174 175 180 182 182 182 182 180 177 179 184 184 184 185 191 195 196 197 200 196 193 191 195 199 200 199 197 199 199 200 201 196
351 353 353 355 355 351 346 346 345 349 348 349 351 350 352 358 360 357 1 2 3 355 355 348 6 24 19 5 357 359 352 24 32 30 25 27 27 26 25 26 32 37 25 16 14 18 21 13 14 360 307 187 172 169 172 175 174 177 178 182 182 186 179 178 180 184 190 192 192 193 196 199 198 196 196 201 202 201 201 199 198 202 204 204 198
353 353 358 3 3 1 347 348 347 354 349 353 353 357 1 359 356 1 360 359 4 5 357 353 360 25 23 8 8 348 20 30 27 23 16 20 27 20 19 25 27 27 23 18 17 25 24 19 3 9 15 7 353 183 176 173 172 177 177 178 182 180 179 178 182 188 192 197 196 195 195 197 196 195 196 201 208 205 205 203 202 202 200 197 201
350 351 352 4 2 359 350 352 356 357 357 355 352 355 359 0 357 359 360 2 6 6 3 7 6 8 21 23 17 359 32 33 28 11 16 21 22 17 23 20 17 19 13 12 14 18 20 14 8 18 12 7 9 5 1 341 178 177 175 177 179 183 184 186 185 186 191 195 197 196 198 200 198 196 197 201 205 204 204 203 204 205 205 203 203
350 346 350 357 3 4 357 356 360 6 358 358 354 359 359 355 355 358 2 2 1 360 6 14 18 3 19 27 29 28 31 34 17 23 22 24 16 19 16 14 9 16 10 14 10 10 9 12 22 20 21 17 10 14 6 3 4 21 160 177 179 183 184 187 188 190 192 192 195 196 197 198 196 193 201 206 206 204 204 205 208 211 213 214 208
351 351 354 353 357 3 2 2 359 6 9 7 5 4 357 353 355 1 2 4 1 2 359 2 11 2 11 22 26 29 34 28 26 25 21 18 22 22 14 11 3 11 10 355 8 21 4 15 32 26 25 18 20 19 21 19 4 349 1 39 145 161 174 185 187 188 188 189 193 196 196 193 194 198 202 198 197 198 198 199 199 199 205 210 212
351 353 352 355 1 5 8 3 360 1 8 9 4 3 4 0 358 356 359 5 6 6 0 359 351 360 8 13 19 25 29 22 24 22 20 19 13 16 12 9 1 21 26 24 21 24 23 20 30 35 30 28 25 24 26 19 9 9 14 15 18 22 22 172 185 189 191 191 192 192 188 186 188 195 195 190 190 193 199 195 193 193 195 194 196
352 354 355 359 2 3 8 9 11 5 6 5 7 7 7 357 349 353 2 4 7 6 1 360 356 359 349 358 10 20 16 13 15 17 16 19 21 11 0 357 2 14 22 24 23 19 23 29 31 34 35 32 29 28 29 25 24 23 18 16 19 18 14 8 358 346 208 181 178 173 175 179 181 182 178 173 175 184 185 182 183 188 187 190 187
356 358 358 1 3 6 8 12 11 9 8 9 15 15 12 14 7 1 5 5 8 5 5 7 5 1 4 7 10 13 8 6 11 11 9 3 3 3 4 352 12 8 11 16 18 21 24 27 28 29 32 31 28 28 28 26 28 29 24 21 13 15 6 350 330 309 307 151 147 147 150 153 160 162 160 159 165 167 166 168 168 161 162 164 173
355 354 1 1 0 4 6 5 6 10 15 16 16 15 13 13 17 9 7 6 4 4 360 4 358 9 13 11 13 15 8 8 10 10 7 5 2 13 18 5 9 14 17 19 14 15 21 23 26 26 26 27 28 28 27 26 26 26 25 25 22 9 357 352 341 358 9 23 84 114 122 116 121 138 141 146 148 148 149 147 148 162 168 166 169
352 357 359 3 360 358 359 357 3 4 8 8 7 4 3 4 4 0 3 6 5 0 2 359 354 360 4 8 9 7 3 7 7 8 3 357 3 14 18 17 23 21 19 20 21 15 17 21 21 24 24 22 25 28 28 26 25 24 24 23 21 19 12 7 14 17 19 23 39 65 75 89 89 94 101 110 112 117 122 137 144 149 146 153 153
354 357 358 359 360 1 359 359 1 358 4 3 359 2 8 5 6 2 354 355 3 1 357 351 355 357 1 6 10 6 5 6 9 0 1 360 359 357 9 9 16 20 12 21 22 23 21 21 18 19 22 22 22 25 25 25 25 26 24 25 24 24 22 23 26 26 23 33 41 54 65 72 70 68 73 83 92 101 108 106 106 99 113 120 130
356 356 359 360 3 2 360 356 356 1 360 355 357 1 357 4 359 357 360 2 5 3 1 358 358 359 359 359 2 356 357 6 5 2 2 1 358 356 352 357 1 360 11 23 21 21 21 21 15 11 20 22 21 21 24 24 25 25 27 25 27 29 30 33 33 34 34 38 42 49 59 62 65 64 63 70 75 78 83 82 91 94 93 96 108
352 350 355 358 359 356 354 351 353 357 356 359 358 358 351 353 357 358 1 359 357 3 1 1 356 352 351 351 359 357 4 5 4 359 2 1 354 351 354 354 357 6 7 12 16 13 7 357 359 6 14 21 22 20 21 24 24 25 26 29 32 34 32 32 34 37 39 38 42 49 55 63 61 62 58 61 65 74 76 81 83 89 92 96 93
350 350 351 352 354 349 350 353 358 358 357 357 360 357 356 356 355 352 349 353 2 352 358 357 350 355 353 353 358 356 360 355 358 1 359 355 350 355 354 358 1 4 1 2 0 353 358 358 4 10 2 16 23 21 19 22 26 27 32 35 36 37 38 38 38 39 45 47 45 46 52 54 59 57 57 56 63 65 68 69 68 71 73 80 85